Weather History for Douglas, WY

Change the Weather History Date:

Thursday, September 4, 2014

  Actual Average Record
Temperature  
Mean Temperature 57 °F 64 °F  
Max Temperature 69 °F 81 °F 98 °F (1998)
Min Temperature 45 °F 47 °F 33 °F (2008)
Degree Days  
Heating Degree Days 8 3  
Month to date heating degree days 17 12  
Since 1 July heating degree days 54 53  
Cooling Degree Days 0 2  
Month to date cooling degree days 3 11  
Year to date cooling degree days 380 469  
Growing Degree Days 6 (Base 50)    
Moisture  
Dew Point 38 °F    
Average Humidity 53    
Maximum Humidity 77    
Minimum Humidity 29    
Precipitation  
Precipitation 0.00 in 0.04 in 0.43 in (2004)
Month to date precipitation T 0.14  
Year to date precipitation 10.68 10.19  
Sea Level Pressure  
Sea Level Pressure 30.01 in    
Wind  
Wind Speed 9 mph (North)    
Max Wind Speed 17 mph    
Max Gust Speed 26 mph    
Visibility 10 miles    
Events      
T = Trace of Precipitation, MM = Missing Value Source: NWS Daily Summary

Daily Weather History Graph

Daily Weather History Graph

Search for Another Location

Airport:

Trip Planner

Search our weather history database for the weather conditions in past years. The results will help you decide how hot, cold, wet, or windy it might be!

Date:

Astronomy

Sep. 04, 2014 Rise Set
Actual Time 6:29 AM MDT 7:30 PM MDT
Civil Twilight 6:00 AM MDT 7:59 PM MDT
Nautical Twilight 5:26 AM MDT 8:33 PM MDT
Astronomical Twilight 4:49 AM MDT 9:09 PM MDT
Moon 4:14 PM MDT (9/4) 1:18 AM MDT (9/4)
Length of Visible Light 13h 59m
Length of Day
13h 01m
Waxing Gibbous, 75% of the Moon is Illuminated
Sep 4
Waxing Gibbous
Sep 8
Full
Sep 15
Last Quarter
Sep 24
New
Oct 1
First Quarter

Hourly Weather History & Observations

Time (MDT) Temp. Windchill Dew Point Humidity Pressure Visibility Wind Dir Wind Speed Gust Speed Precip Events Conditions
12:53 AM 57.9 °F - 46.0 °F 65% 29.77 in 10.0 mi NNW 16.1 mph 23.0 mph N/A   Clear
1:53 AM 55.0 °F - 41.0 °F 59% 29.81 in 10.0 mi NNW 13.8 mph - N/A   Clear
2:53 AM 51.1 °F - 42.1 °F 71% 29.84 in 10.0 mi NW 10.4 mph - N/A   Clear
3:53 AM 48.9 °F - 41.0 °F 74% 29.86 in 10.0 mi WNW 4.6 mph - N/A   Clear
4:53 AM 46.9 °F - 39.9 °F 77% 29.89 in 10.0 mi NW 6.9 mph - N/A   Clear
5:53 AM 45.0 °F 40.6 °F 37.9 °F 76% 29.91 in 10.0 mi NW 8.1 mph - N/A   Clear
6:53 AM 46.0 °F 41.4 °F 36.0 °F 68% 29.96 in 10.0 mi WNW 9.2 mph - N/A   Clear
7:53 AM 51.1 °F - 36.0 °F 56% 29.97 in 10.0 mi NW 8.1 mph - N/A   Clear
8:53 AM 55.0 °F - 36.0 °F 49% 29.96 in 10.0 mi NW 10.4 mph - N/A   Clear
9:53 AM 57.9 °F - 36.0 °F 44% 30.00 in 10.0 mi Variable 4.6 mph - N/A   Clear
10:53 AM 61.0 °F - 36.0 °F 39% 30.01 in 10.0 mi North 12.7 mph - N/A   Clear
11:53 AM 63.0 °F - 37.0 °F 38% 30.01 in 10.0 mi North 12.7 mph - N/A   Clear
12:53 PM 66.0 °F - 37.9 °F 36% 30.01 in 10.0 mi North 12.7 mph 20.7 mph N/A   Clear
1:53 PM 66.0 °F - 37.0 °F 34% 30.01 in 10.0 mi North 13.8 mph - N/A   Clear
2:53 PM 66.0 °F - 35.1 °F 32% 30.03 in 10.0 mi NW 8.1 mph 19.6 mph N/A   Clear
3:53 PM 66.9 °F - 34.0 °F 30% 30.04 in 10.0 mi NE 9.2 mph 18.4 mph N/A   Clear
4:53 PM 66.0 °F - 36.0 °F 33% 30.06 in 10.0 mi NE 13.8 mph 18.4 mph N/A   Clear
5:53 PM 63.0 °F - 35.1 °F 35% 30.11 in 10.0 mi NE 9.2 mph - N/A   Clear
6:53 PM 61.0 °F - 36.0 °F 39% 30.12 in 10.0 mi NNE 11.5 mph - N/A   Clear
7:53 PM 59.0 °F - 35.1 °F 41% 30.13 in 10.0 mi NNE 8.1 mph - N/A   Clear
8:53 PM 55.9 °F - 37.0 °F 49% 30.16 in 10.0 mi ENE 10.4 mph - N/A   Clear
9:53 PM 55.0 °F - 37.0 °F 51% 30.17 in 10.0 mi Variable 6.9 mph - N/A   Mostly Cloudy
10:53 PM 54.0 °F - 37.9 °F 55% 30.18 in 10.0 mi NE 8.1 mph - N/A   Mostly Cloudy
11:53 PM 52.0 °F - 37.9 °F 59% 30.19 in 10.0 mi ENE 3.5 mph - N/A   Clear